Flight Track Log - Related Links

Times and Time Zones

All times are in EDT time to prevent confusion due to time zone crossing. See the EJA122 flight status page for this flight to view local times or setup timezone preferences in your user account.

Time Position Orientation Groundspeed Altitude Reporting Facility
EDT Latitude Longitude Course Direction KTS MPH feet Rate Location/Type
Sun 12:39:28 PM 44.3803 -73.0850 260° West 252 290 6,800  Level Boston Center
Sun 12:40:28 PM 44.3631 -73.1719 255° West 234 269 9,300 2,100 Climbing Boston Center
Sun 12:41:28 PM 44.3542 -73.2792 263° West 260 299 11,000 1,650 Climbing Boston Center
Sun 12:42:28 PM 44.3447 -73.3981 264° West 300 345 12,600 1,500 Climbing Boston Center
Sun 12:43:28 PM 44.3333 -73.5225 263° West 315 362 14,000 1,227 Climbing Boston Center
Sun 12:44:00 PM 44.3499 -74.0627 260° West  Level FlightAware Approximate
Sun 12:44:40 PM 44.3169 -73.6878 262° West 335 386 15,300  Level Boston Center
Sun 12:45:40 PM 44.3031 -73.8236 262° West 346 398 16,400 1,050 Climbing Boston Center
Sun 12:46:40 PM 44.2908 -73.9597 263° West 356 410 17,400 850 Climbing Boston Center
Sun 12:47:40 PM 44.2786 -74.0986 263° West 361 415 18,100 850 Climbing Boston Center
Sun 12:48:40 PM 44.2661 -74.2347 263° West 361 415 19,100 1,000 Climbing Boston Center
Sun 12:49:40 PM 44.2514 -74.3761 262° West 366 421 20,100 1,000 Climbing Boston Center
Sun 12:50:40 PM 44.2383 -74.5178 263° West 366 421 21,100 1,000 Climbing Boston Center
Sun 12:51:40 PM 44.2253 -74.6592 263° West 372 428 22,100 1,000 Climbing Boston Center
Sun 12:52:40 PM 44.2100 -74.8006 261° West 372 428 23,100 1,050 Climbing Boston Center
Sun 12:53:40 PM 44.1967 -74.9450 263° West 372 428 24,200 1,000 Climbing Boston Center
Sun 12:54:52 PM 44.1781 -75.1150 261° West 372 428 25,300 864 Climbing Boston Center
Sun 12:55:52 PM 44.1622 -75.2619 262° West 377 434 26,100 750 Climbing Boston Center
Sun 12:56:52 PM 44.1461 -75.4058 261° West 382 440 26,800 650 Climbing Boston Center
Sun 12:57:52 PM 44.1317 -75.5556 262° West 388 447 27,400 550 Climbing Boston Center
Sun 12:58:52 PM 44.1147 -75.7081 261° West 395 455 27,900 450 Climbing Boston Center
Sun 12:59:52 PM 44.0956 -75.8689 261° West 410 472 28,300 600 Climbing Boston Center
Sun 01:00:52 PM 44.0783 -76.0269 261° West 415 478 29,100 750 Climbing Boston Center
Sun 01:01:52 PM 44.0606 -76.1906 261° West 427 491 29,800 450 Climbing Boston Center
Sun 01:02:52 PM 44.0406 -76.3539 260° West 427 491 30,000 100 Climbing Boston Center
Sun 01:03:52 PM 44.0197 -76.5289 261° West 443 510 30,000  Level Boston Center
Sun 01:05:04 PM 43.9833 -76.7167 255° West 460 529 30,000  Level Toronto Center
Sun 01:06:04 PM 43.9500 -76.8833 255° West 470 541 30,000  Level Toronto Center
Sun 01:07:04 PM 43.9333 -77.0667 263° West 470 541 30,000  Level Toronto Center
Sun 01:08:04 PM 43.9333 -77.2500 270° West 460 529 30,000  Level Toronto Center
Sun 01:09:04 PM 43.9667 -77.4333 284° West 470 541 30,000  Level Toronto Center
Sun 01:10:04 PM 43.9833 -77.6167 277° West 470 541 30,000 -150 Level Toronto Center
Sun 01:11:04 PM 44.0000 -77.7833 278° West 470 541 29,700 -900 Descending Toronto Center
Sun 01:12:04 PM 44.0000 -77.9333 270° West 460 529 28,200 -1,500 Descending Toronto Center
Sun 01:13:04 PM 44.0167 -78.1333 277° West 440 506 26,700 -1,500 Descending Toronto Center
Sun 01:14:04 PM 44.0500 -78.2833 287° West 440 506 25,200 -1,550 Descending Toronto Center
Sun 01:15:04 PM 44.0667 -78.4500 278° West 440 506 23,600 -1,700 Descending Toronto Center
Sun 01:16:04 PM 44.1000 -78.6167 286° West 440 506 21,800 -1,800 Descending Toronto Center
Sun 01:17:04 PM 44.1167 -78.8000 277° West 430 495 20,000 -1,800 Descending Toronto Center
Sun 01:18:04 PM 44.1333 -78.9333 280° West 410 472 18,200 -1,550 Descending Toronto Center
Sun 01:19:04 PM 44.1000 -79.0833 253° West 400 460 16,900 -1,100 Descending Toronto Center
Sun 01:20:04 PM 44.0667 -79.2333 253° West 390 449 16,000 -450 Descending Toronto Center
Sun 01:21:04 PM 44.0333 -79.3833 253° West 390 449 16,000 -450 Level Toronto Center
Sun 01:22:04 PM 43.9667 -79.5000 232° Southwest 390 449 15,100 -1,200 Descending Toronto Center
Sun 01:23:04 PM 43.9000 -79.6167 232° Southwest 380 437 13,600 -1,600 Descending Toronto Center
Sun 01:24:04 PM 43.8333 -79.7000 222° Southwest 360 414 11,900 -1,300 Descending Toronto Center
Sun 01:25:04 PM 43.7667 -79.8167 232° Southwest 360 414 11,000 -450 Descending Toronto Center
Sun 01:26:04 PM 43.7000 -79.9333 232° Southwest 360 414 11,000 -700 Level Toronto Center
Sun 01:27:04 PM 43.6667 -80.0167 241° Southwest 300 345 9,600 -1,950 Descending Toronto Center
Sun 01:28:04 PM 43.6333 -80.1000 241° Southwest 260 299 7,100 -1,750 Descending Toronto Center
Sun 01:29:04 PM 43.6000 -80.1833 241° Southwest 240 276 6,100 -550 Descending Toronto Center
Sun 01:30:04 PM 43.5667 -80.2500 235° Southwest 230 265 6,000 -450 Descending Toronto Center
Sun 01:31:04 PM 43.5500 -80.3500 257° West 230 265 5,200 -1,000 Descending Toronto Center
Sun 01:32:04 PM 43.5333 -80.4333 255° West 240 276 4,000 -550 Descending Toronto Center
Sun 01:33:04 PM 43.5333 -80.5333 270° West 230 265 4,100  Climbing Toronto Center
Sun 01:34:04 PM 43.5000 -80.6000 235° Southwest 230 265 4,000 -50 Descending Toronto Center
Sun 01:35:04 PM 43.4500 -80.6500 216° Southwest 230 265 4,000  Level Toronto Center
Sun 01:36:04 PM 43.3833 -80.6167 160° South 230 265 4,000 -50 Level Toronto Center
Sun 01:37:04 PM 43.3333 -80.5500 136° Southeast 240 276 3,900  Descending Toronto Center
Sun 01:38:04 PM 43.2833 -80.4833 136° Southeast 240 276 4,000  Climbing Toronto Center
Sun 01:39:04 PM 43.3000 -80.3833 77° East 240 276 3,900 -50 Descending Toronto Center
Sun 01:40:04 PM 43.3333 -80.3167 55° Northeast 230 265 3,900 -350 Level Toronto Center
Sun 01:41:04 PM 43.3500 -80.2333 75° East 230 265 3,200 -450 Descending Toronto Center
Sun 01:42:04 PM 43.3667 -80.1333 77° East 230 265 3,000 -150 Descending Toronto Center
Sun 01:43:04 PM 43.4167 -80.1000 26° Northeast 230 265 2,900  Descending Toronto Center
Sun 01:44:04 PM 43.4833 -80.1167 350° North 230 265 3,000 -50 Climbing Toronto Center
Sun 01:45:04 PM 43.5167 -80.1667 313° West 210 242 2,800 -100 Descending Toronto Center
Sun 01:46:04 PM 43.5000 -80.2333 251° West 210 242 2,800 -350 Level Toronto Center
Sun 01:47:04 PM 43.4667 -80.3000 235° Southwest 190 219 2,100 -750 Descending Toronto Center
Sun 01:48:04 PM 43.4500 -80.3667 251° West 160 184 1,300 -800 Descending Toronto Center

Login

Don't have an account? Register now (free) for customized features, flight alerts, and more!